Retour au catalogue

SL-12 R/B(2)

LostMEO
NORAD 32396·ROCKET BODY·🇷🇺 Russia

Lancé Dec 25, 2007 depuis Baikonur Cosmodrome

Loading…

Prochains Passages (prochaines 24 heures)

TLE

PériméSource: Space-Track

Époque: Aug 3, 2026, 15:32 UTC

1 32396U 07065D   26215.64738365  .00000091  00000-0  00000+0 0  9998
2 32396  64.3269 189.6305 0035982 191.1436 350.7639  2.13392405144998

Suivez SL-12 R/B(2) en temps réel avec AllMySat

Download on the App Store